SL-12 R/B(AUX MOTOR), 19755

Orbit data source: Space-Track

SL-12 R/B(AUX MOTOR), 19755 is space debris in HEO originally from a launch on Tue, 10 Jan 1989 UTC launched from the Tyuratam Missile And Space Complex (TTMTR). Debris objects in space refer to the collection of defunct objects orbiting the Earth. Examples of debris include non-operational satellites, rocket bodies, and fragments generated from explosions, collisions, or faulty payload assembly.

Loading next visibility...
Identifier
19755, 1989-001G
Orbit
HEO
Last TLE update
1 day ago
Origin
Manufacturer
NPO Energiya
Mission
Spacecraft
Bus & Motor
SOZ, Unknown motor
Mass
Wet unknown, ~60 kg dry
Launch date (UTC)
1989-01-10 (36 years ago)
Launch vehicle
Unknown
Launch site
Tyuratam Missile And Space Complex (TTMTR)
Object type
Payload
Rocket body
Debris
Shape & HBR
Cyl, 1.1 m
Radar Cross Section
0.660 m², Medium (>0.1 m² and < 1m²)

Expand to show TLE details & history

TLE from 1 day ago
0 SL-12 R/B(AUX MOTOR)
1 19755U 89001G   25183.12101994  .00000071  00000-0  24369-3 0  9996
2 19755  65.2449 129.4103 5488961  95.1115 326.4736  4.25597569566215
Epoch: 2025-07-02T02:54Z
TLE epoch observation values (Epoch: 2025-07-02T02:54:16.122Z)
Latitude
-0.00007°
Longitude
165.43407°
Altitude
5,430.964 km
Speed
6.537 km/s
True Right ascension
08h 37m 37s
True Declination
0° 00' 00"
Sunlit
Object was in daylight at epoch
Visualization orbit readout
Latitude
-58.25356°
Longitude
33.15093°
Altitude
15,880.373 km
Speed
3.325 km/s
Apparent Right ascension
00h 50m 27s
Apparent Declination
-56° 45' 05"
Sunlit
Object is in daylight
Visualization observer readout
Local Sidereal Time
15:29:16
Azimuth
136.629° SSE
Elevation
-59.332°
Doppler factor
1
Orbital elements
Apogee altitude
18,533.081 km
Perigee altitude
877.061 km
Semi-major axis
16,083.208 km
Eccentricity
0.5489
Inclination
65.2449°
RAAN
129.4103°
Arg. of periapsis
95.1115°
True anomaly
Unknown
Mean anomaly
326.4736°
Eccentric anomaly
Unknown
Mean motion
1.0641 °/min
Orbital period
338.31 mins
BSTAR
0.00024369
Loading maneuver chart data...
Loading SW <> Apogee altitude chart data...
Loading historical data...
Loading historical data...
Loading historical data...
Loading historical data...
Loading historical data...
Loading historical data...
Loading historical data...

SL-12 R/B(AUX MOTOR) Visibility forecast

Observer location: undefined°, undefined°

Span
Click to sort rows by Start time (UTC) header in descending order
Start Az.
Max El. time (UTC)
Max El. Az.
Max El.
End time (UTC)
End Az.
22 mins2025-07-03 07:43:02.700Z319.377° NNW2025-07-03 07:48:02.700Z238.568° WSW42.812°2025-07-03 08:05:02.700Z161.829° S
13 mins2025-07-04 00:15:02.700Z259.95° W2025-07-04 00:23:02.700Z306.214° NW22.23°2025-07-04 00:28:02.700Z3.982° NNE
|